Location: Oshawa
(43.9000°N, 78.8670°W)
Time: 02:55:44
(UTC-05:00)

Cosmos 1707 Rocket - Visible Passes

Search period start: 25 February 2018 00:00
Search period end: 07 March 2018 00:00
Orbit: 606 x 631 km, 82.5° (Epoch: 24 February)

Date Brightness Start Highest point End Pass type
(mag) Time Alt. Az. Time Alt. Az. Time Alt. Az.
25 Feb 6.1 03:39:58 18° E 03:39:58 18° E 03:42:49 10° NE visible
25 Feb 3.9 05:17:09 42° W 05:17:15 42° WNW 05:21:32 10° N visible
26 Feb 5.4 03:57:41 29° ENE 03:57:41 29° ENE 04:00:43 10° NNE visible
26 Feb 4.7 05:34:52 24° WNW 05:34:52 24° WNW 05:38:16 10° NNW visible
27 Feb 4.8 04:15:18 38° NE 04:15:18 38° NE 04:18:12 10° NNE visible
27 Feb 5.4 05:52:28 14° WNW 05:52:28 14° WNW 05:54:30 10° NW visible
28 Feb 4.7 04:32:49 35° N 04:32:49 35° N 04:35:27 10° N visible
01 Mar 6.6 03:13:06 13° NE 03:13:06 13° NE 03:13:51 10° NE visible
01 Mar 5.0 04:50:16 25° NNW 04:50:16 25° NNW 04:52:28 10° N visible
02 Mar 6.2 03:30:29 17° NE 03:30:29 17° NE 03:31:42 10° NNE visible
02 Mar 5.4 05:07:39 17° NW 05:07:39 17° NW 05:09:13 10° NNW visible
03 Mar 5.9 03:47:50 19° NNE 03:47:50 19° NNE 03:49:12 10° NNE visible
03 Mar 5.8 05:25:00 11° NW 05:25:00 11° NW 05:25:22 10° NW visible
04 Mar 5.7 04:05:09 19° N 04:05:09 19° N 04:06:25 10° N visible
05 Mar 5.8 04:22:25 16° NNW 04:22:25 16° NNW 04:23:25 10° N visible
06 Mar 6.7 03:02:31 11° NNE 03:02:31 11° NNE 03:02:42 10° NNE visible
06 Mar 5.9 04:39:40 12° NNW 04:39:40 12° NNW 04:40:07 10° NNW visible
